Date String (YYYY-MM-DD hh:mm:ss) UTC,Instrument flags,Ambient pressure (hPa),Sample flow (lpm),Bypass flow (lpm),Sample temperature (°C),Ambient temperature (°C),ASC tube jacket temperature (°C),LED temperature (°C),Box temperature (°C),Sample RH (%),Span deviation,Mass concentration (μg/m³),Mass concentration (μg/m³),Mass concentration (μg/m³)
DateTimeUTC,F1_M11,P_M11,Q1_M11,Q2_M11,T1_M11,T2_M11,T3_M11,T4_M11,T5_M11,U1_M11,ZSPAN_M11,X0_M11,X2_M11,X1_M11
2022-07-25 02:00:00,,0830.1,4.99,0.00,32.6,27.4,00.0,40.7,32.5,35.2,0000.0,0009.81,0004.51,0003.85
2022-07-25 02:01:00,,0830.1,4.99,0.00,32.7,27.5,00.0,40.7,32.6,35.0,0000.0,0009.81,0004.50,0003.85
2022-07-25 02:02:00,,0830.1,5.01,0.00,32.8,27.7,00.0,40.6,32.7,34.9,0000.0,0009.86,0004.50,0003.86
2022-07-25 02:03:00,,0830.1,4.99,0.00,32.8,27.8,00.0,40.6,32.7,34.5,0000.0,0009.63,0004.51,0003.86
2022-07-25 02:04:00,,0830.2,5.01,0.00,32.8,28.0,00.0,40.6,32.6,34.4,0000.0,0008.88,0004.50,0003.85
2022-07-25 02:05:00,,0830.1,4.99,0.00,32.7,28.1,00.0,40.6,32.6,34.5,0000.0,0008.75,0004.47,0003.84
2022-07-25 02:06:00,,0830.1,5.01,0.00,32.7,28.3,00.0,40.6,32.6,34.6,0000.0,0008.86,0004.51,0003.84
2022-07-25 02:07:00,,0830.1,4.99,0.00,32.6,28.4,00.0,40.6,32.6,34.7,0000.0,0008.78,0004.51,0003.84
2022-07-25 02:08:00,,0830.1,5.00,0.00,32.5,28.5,00.0,40.6,32.6,35.0,0000.0,0008.02,0004.48,0003.84
2022-07-25 02:09:00,,0830.1,5.01,0.00,32.5,28.6,00.0,40.6,32.7,34.9,0000.0,0008.01,0004.50,0003.84
2022-07-25 02:10:00,,0830.1,5.01,0.00,32.6,28.7,00.0,40.6,32.7,34.8,0000.0,0008.08,0004.54,0003.86
2022-07-25 02:11:00,,0830.1,4.99,0.00,32.5,28.8,00.0,40.6,32.7,34.9,0000.0,0008.13,0004.57,0003.87
2022-07-25 02:12:00,,0830.2,5.00,0.00,32.5,28.8,00.0,40.6,32.7,34.9,0000.0,0008.10,0004.59,0003.87
2022-07-25 02:13:00,,0830.1,5.00,0.00,32.5,28.9,00.0,40.6,32.8,35.2,0000.0,0008.21,0004.65,0003.90
2022-07-25 02:14:00,,0830.1,5.00,0.00,32.7,28.9,00.0,40.6,32.9,34.8,0000.0,0008.29,0004.69,0003.92
2022-07-25 02:15:00,,0830.1,5.00,0.00,32.8,29.0,00.0,40.6,32.9,34.5,0000.0,0008.43,0004.73,0003.93
2022-07-25 02:16:00,,0830.1,5.00,0.00,32.8,29.0,00.0,40.6,32.9,34.2,0000.0,0008.76,0004.85,0003.97
2022-07-25 02:17:00,,0830.1,5.00,0.00,32.8,29.1,00.0,40.7,32.9,34.3,0000.0,0009.07,0004.90,0004.02
2022-07-25 02:18:00,,0830.1,4.99,0.00,32.7,29.1,00.0,40.7,32.9,34.5,0000.0,0009.50,0004.92,0004.05
2022-07-25 02:19:00,,0830.1,5.01,0.00,32.7,29.1,00.0,40.7,32.9,34.3,0000.0,0009.70,0004.98,0004.09
2022-07-25 02:20:00,,0830.1,5.00,0.00,32.6,28.7,00.0,40.6,32.9,34.2,0000.0,0009.84,0005.05,0004.13
2022-07-25 02:21:00,,0830.1,5.01,0.00,32.6,28.1,00.0,40.6,32.8,34.2,0000.0,0009.93,0005.08,0004.18
2022-07-25 02:22:00,,0830.0,4.99,0.00,32.5,27.8,00.0,40.5,32.6,34.2,0000.0,0009.92,0005.10,0004.21
2022-07-25 02:23:00,,0829.9,4.99,0.00,32.3,27.8,00.0,40.5,32.5,34.7,0000.0,0010.02,0005.14,0004.24
2022-07-25 02:24:00,,0829.8,5.01,0.00,32.2,27.9,00.0,40.5,32.4,35.1,0000.0,0009.98,0005.13,0004.26
2022-07-25 02:25:00,,0829.9,5.01,0.00,32.3,28.0,00.0,40.5,32.6,35.0,0000.0,0009.96,0005.14,0004.28
2022-07-25 02:26:00,,0829.9,4.99,0.00,32.5,28.1,00.0,40.5,32.7,34.5,0000.0,0009.89,0005.12,0004.30
2022-07-25 02:27:00,,0829.9,5.01,0.00,32.6,28.3,00.0,40.4,32.7,34.4,0000.0,0009.66,0005.05,0004.30
2022-07-25 02:28:00,,0830.0,5.00,0.00,32.6,28.4,00.0,40.4,32.7,34.5,0000.0,0009.44,0005.06,0004.29
2022-07-25 02:29:00,,0830.0,5.00,0.00,32.5,28.5,00.0,40.5,32.6,34.5,0000.0,0009.00,0005.05,0004.29
2022-07-25 02:30:00,,0829.9,5.02,0.00,32.5,28.6,00.0,40.5,32.6,34.4,0000.0,0008.88,0005.08,0004.30
2022-07-25 02:31:00,,0829.9,5.00,0.00,32.4,28.7,00.0,40.5,32.6,34.4,0000.0,0008.71,0005.03,0004.28
2022-07-25 02:32:00,,0830.0,4.99,0.00,32.4,28.8,00.0,40.5,32.6,34.6,0000.0,0008.53,0004.97,0004.25
2022-07-25 02:33:00,,0829.9,5.00,0.00,32.3,28.8,00.0,40.5,32.6,34.8,0000.0,0008.61,0005.00,0004.25
2022-07-25 02:34:00,,0829.8,5.01,0.00,32.3,28.9,00.0,40.5,32.6,34.9,0000.0,0008.53,0004.98,0004.25
2022-07-25 02:35:00,,0829.9,4.99,0.00,32.2,28.9,00.0,40.5,32.6,34.9,0000.0,0008.39,0004.96,0004.26
2022-07-25 02:36:00,,0829.8,5.01,0.00,32.2,29.0,00.0,40.5,32.7,35.0,0000.0,0008.36,0004.97,0004.26
2022-07-25 02:37:00,,0829.8,5.00,0.00,32.3,29.0,00.0,40.5,32.8,34.9,0000.0,0008.47,0005.01,0004.27
2022-07-25 02:38:00,,0829.8,5.00,0.00,32.4,29.1,00.0,40.5,32.9,34.5,0000.0,0008.41,0005.02,0004.28
2022-07-25 02:39:00,,0829.8,5.00,0.00,32.5,29.1,00.0,40.5,32.9,34.4,0000.0,0008.36,0005.02,0004.29
2022-07-25 02:40:00,,0829.8,5.00,0.00,32.5,28.9,00.0,40.5,32.8,34.2,0000.0,0008.34,0005.02,0004.30
2022-07-25 02:41:00,,0829.8,5.01,0.00,32.5,28.2,00.0,40.4,32.7,34.2,0000.0,0008.27,0005.00,0004.31
2022-07-25 02:42:00,,0829.7,4.99,0.00,32.4,27.8,00.0,40.4,32.6,34.4,0000.0,0008.31,0005.02,0004.31
2022-07-25 02:43:00,,0829.7,5.00,0.00,32.3,27.8,00.0,40.4,32.5,34.6,0000.0,0008.34,0005.05,0004.34
2022-07-25 02:44:00,,0829.7,5.01,0.00,32.1,27.8,00.0,40.4,32.4,34.8,0000.0,0008.22,0005.01,0004.35
2022-07-25 02:45:00,,0829.6,4.99,0.00,32.0,28.0,00.0,40.4,32.4,35.1,0000.0,0008.41,0005.06,0004.35
2022-07-25 02:46:00,,0829.7,4.99,0.00,32.2,28.1,00.0,40.3,32.5,35.0,0000.0,0008.54,0005.09,0004.36
2022-07-25 02:47:00,,0829.7,5.01,0.00,32.3,28.2,00.0,40.3,32.6,34.6,0000.0,0008.53,0005.08,0004.36
2022-07-25 02:48:00,,0829.7,5.00,0.00,32.3,28.3,00.0,40.3,32.6,34.6,0000.0,0008.58,0005.07,0004.36
2022-07-25 02:49:00,,0829.7,5.00,0.00,32.3,28.5,00.0,40.3,32.6,34.8,0000.0,0008.60,0005.07,0004.38
2022-07-25 02:50:00,,0829.8,5.01,0.00,32.3,28.6,00.0,40.3,32.6,34.8,0000.0,0008.59,0005.06,0004.38
2022-07-25 02:51:00,,0829.8,4.99,0.00,32.3,28.7,00.0,40.3,32.6,34.8,0000.0,0008.59,0005.06,0004.39
2022-07-25 02:52:00,,0829.8,4.99,0.00,32.2,28.7,00.0,40.3,32.6,34.7,0000.0,0008.61,0005.07,0004.40
2022-07-25 02:53:00,,0829.8,5.01,0.00,32.2,28.8,00.0,40.4,32.6,34.8,0000.0,0008.73,0005.13,0004.43
2022-07-25 02:54:00,,0829.8,5.00,0.00,32.1,28.9,00.0,40.4,32.6,34.8,0000.0,0008.77,0005.14,0004.44
2022-07-25 02:55:00,,0829.8,4.99,0.00,32.1,28.9,00.0,40.4,32.6,34.8,0000.0,0008.99,0005.23,0004.47
2022-07-25 02:56:00,,0829.9,5.00,0.00,32.0,29.0,00.0,40.4,32.6,35.0,0000.0,0008.99,0005.25,0004.48
2022-07-25 02:57:00,,0829.9,5.01,0.00,32.1,29.0,00.0,40.4,32.7,34.9,0000.0,0009.03,0005.25,0004.50
2022-07-25 02:58:00,,0829.9,4.98,0.00,32.2,29.0,00.0,40.3,32.8,34.7,0000.0,0009.32,0005.26,0004.51
2022-07-25 02:59:00,,0829.9,5.01,0.00,32.2,29.1,00.0,40.3,32.8,34.6,0000.0,0009.47,0005.32,0004.54
